Location: Ammerl�gen
(47.2167°N, 9.6000°E)
Time: 21:51:44
(UTC+00:00)

ISS - Pass Details

Date: 28 September 2021
Orbit: 417 x 423 km, 51.6° (Epoch: 19 October)

Event Time Altitude Azimuth Distance (km) Brightness Sun altitude
Rises 18:59:44 0° 293° (WNW) 2,366 1.7 -19.7°
Reaches altitude 10° 19:01:51 10° 298° (WNW) 1,502 0.2 -20.0°
Enters shadow 19:05:04 59° 6° (N) 491 -3.5 -20.6°
